This is the latest recevied weather packets stored in our database for station/object N0ZMJ-3. If no packets are shown the sender has not sent any weather packets the latest 10 day(s).
| Time | Temp. | Humidity | Pressure | Rain* | Wind** | Luminosity | Snow |
|---|---|---|---|---|---|---|---|
| 1777825346 | 16.67° C | 53% | 1010.1 hPa | 0 mm | - | - | - |
| 1777824923 | 16.67° C | 53% | 1010.1 hPa | 0 mm | - | - | - |
| 1777824855 | 16.67° C | 55% | 1010.2 hPa | 0 mm | - | - | - |
| 1777824502 | 16.67° C | 54% | 1010.1 hPa | 0 mm | - | - | - |
| 1777824255 | 16.67° C | 52% | 1010.1 hPa | 0 mm | - | - | - |
| 1777824083 | 16.67° C | 52% | 1010.1 hPa | 0 mm | - | - | - |
| 1777823655 | 16.67° C | 56% | 1010.1 hPa | 0 mm | - | - | - |
| 1777823244 | 16.11° C | 56% | 1010.2 hPa | 0 mm | - | - | - |
| 1777823054 | 16.11° C | 56% | 1010.1 hPa | 0 mm | - | - | - |
| 1777822822 | 16.11° C | 56% | 1010.1 hPa | 0 mm | - | - | - |
| 1777822454 | 15.56° C | 57% | 1010.2 hPa | 0 mm | - | - | - |
| 1777822405 | 15.56° C | 57% | 1010.2 hPa | 0 mm | - | - | - |
| 1777821981 | 16.11° C | 57% | 1010.2 hPa | 0 mm | - | - | - |
| 1777821854 | 15.56° C | 59% | 1010.2 hPa | 0 mm | - | - | - |
| 1777821561 | 15.56° C | 59% | 1010.3 hPa | 0 mm | - | - | - |
| 1777821256 | 15.56° C | 59% | 1010.2 hPa | 0 mm | - | - | - |
| 1777821144 | 15.56° C | 59% | 1010.2 hPa | 0 mm | - | - | - |
| 1777820725 | 15.56° C | 58% | 1010.3 hPa | 0 mm | - | - | - |
| 1777820656 | 15.56° C | 60% | 1010.4 hPa | 0 mm | - | - | - |
| 1777820306 | 15° C | 60% | 1010.4 hPa | 0 mm | - | - | - |
| 1777820055 | 15° C | 61% | 1010.2 hPa | 0 mm | - | - | - |
| 1777819883 | 15° C | 61% | 1010.2 hPa | 0 mm | - | - | - |
| 1777819454 | 15° C | 65% | 1010.3 hPa | 0 mm | - | - | - |
| 1777819043 | 14.44° C | 64% | 1010.4 hPa | 0 mm | - | - | - |
| 1777818854 | 14.44° C | 63% | 1010.4 hPa | 0 mm | - | - | - |
* Rain latest hour (hover to see other rain measurements)
** Current wind speed in m/s (hover to see current wind gust speed)